Météo par heure à Aarschot

Ce jour, 18 Avril, Dimanche

Heure Température Précipitation Vent Pression Humidité
00:00 +3°C° 0 mm 2 m/s 764 mmHg 81%
01:00 +3°C° 0 mm 2 m/s 764 mmHg 83%
02:00 +3°C° 0 mm 2 m/s 763 mmHg 85%
03:00 +2°C° 0 mm 2 m/s 763 mmHg 87%
04:00 +4°C° 0 mm 1 m/s 763 mmHg 85%
05:00 +4°C° 0 mm 1 m/s 763 mmHg 83%
06:00 +5°C° 0 mm 1 m/s 763 mmHg 81%
07:00 +7°C° 0 mm 1 m/s 763 mmHg 73%
08:00 +9°C° 0 mm 1 m/s 763 mmHg 64%
09:00 +11°C° 0 mm 1 m/s 763 mmHg 56%
10:00 +12°C° 0 mm 2 m/s 763 mmHg 54%
11:00 +13°C° 0 mm 2 m/s 763 mmHg 52%
12:00 +15°C° 0 mm 2 m/s 762 mmHg 51%
13:00 +14°C° 0.1 mm 2 m/s 762 mmHg 54%
14:00 +14°C° 0.1 mm 2 m/s 762 mmHg 58%
15:00 +14°C° 0.1 mm 2 m/s 762 mmHg 61%
16:00 +13°C° 0.1 mm 2 m/s 762 mmHg 66%
17:00 +12°C° 0.1 mm 2 m/s 762 mmHg 71%
18:00 +12°C° 0.1 mm 2 m/s 762 mmHg 75%
19:00 +10°C° 0 mm 2 m/s 762 mmHg 78%
20:00 +9°C° 0 mm 2 m/s 762 mmHg 81%
21:00 +8°C° 0 mm 2 m/s 763 mmHg 84%
22:00 +8°C° 0 mm 2 m/s 762 mmHg 85%
23:00 +7°C° 0 mm 2 m/s 762 mmHg 87%

Demain, 19 Avril, Lundi

Heure Température Précipitation Vent Pression Humidité
00:00 +7°C° 0 mm 2 m/s 762 mmHg 88%
01:00 +7°C° 0 mm 2 m/s 762 mmHg 89%
02:00 +6°C° 0 mm 2 m/s 762 mmHg 89%
03:00 +6°C° 0 mm 2 m/s 761 mmHg 89%
04:00 +6°C° 0 mm 2 m/s 761 mmHg 88%
05:00 +6°C° 0 mm 2 m/s 761 mmHg 86%
06:00 +6°C° 0 mm 2 m/s 762 mmHg 84%
07:00 +7°C° 0.3 mm 2 m/s 761 mmHg 82%
08:00 +8°C° 0.3 mm 2 m/s 761 mmHg 80%
09:00 +10°C° 0.3 mm 2 m/s 761 mmHg 77%
10:00 +10°C° 0.4 mm 2 m/s 761 mmHg 79%
11:00 +10°C° 0.4 mm 2 m/s 761 mmHg 81%
12:00 +10°C° 0.4 mm 2 m/s 760 mmHg 82%
13:00 +10°C° 0.4 mm 2 m/s 760 mmHg 82%
14:00 +10°C° 0.4 mm 2 m/s 760 mmHg 81%
15:00 +10°C° 0.4 mm 3 m/s 760 mmHg 81%
16:00 +10°C° 0.1 mm 2 m/s 760 mmHg 83%
17:00 +11°C° 0.1 mm 1 m/s 760 mmHg 85%
18:00 +10°C° 0.1 mm 1 m/s 760 mmHg 88%
19:00 +10°C° 0 mm 1 m/s 760 mmHg 89%
20:00 +9°C° 0 mm 1 m/s 760 mmHg 90%
21:00 +7°C° 0 mm 0 m/s 760 mmHg 91%
22:00 +7°C° 0 mm 0 m/s 760 mmHg 91%
23:00 +7°C° 0 mm 0 m/s 760 mmHg 91%

Après-demain, 20 Avril, Mardi

Heure Température Précipitation Vent Pression Humidité
00:00 +7°C° 0 mm 0 m/s 760 mmHg 92%
01:00 +8°C° 0 mm 1 m/s 759 mmHg 92%
02:00 +7°C° 0 mm 1 m/s 759 mmHg 92%
03:00 +7°C° 0 mm 1 m/s 759 mmHg 93%
04:00 +8°C° 0 mm 1 m/s 759 mmHg 92%
05:00 +8°C° 0 mm 1 m/s 759 mmHg 91%
06:00 +8°C° 0 mm 1 m/s 759 mmHg 90%
07:00 +10°C° 0 mm 1 m/s 760 mmHg 83%
08:00 +10°C° 0 mm 0 m/s 760 mmHg 76%
09:00 +12°C° 0 mm 0 m/s 760 mmHg 69%
10:00 +13°C° 0 mm 0 m/s 759 mmHg 64%
11:00 +14°C° 0 mm 0 m/s 759 mmHg 59%
12:00 +15°C° 0 mm 0 m/s 759 mmHg 54%
13:00 +16°C° 0 mm 1 m/s 759 mmHg 54%
14:00 +15°C° 0 mm 1 m/s 759 mmHg 55%
15:00 +15°C° 0 mm 2 m/s 758 mmHg 56%
16:00 +14°C° 0 mm 2 m/s 759 mmHg 60%
17:00 +14°C° 0 mm 2 m/s 759 mmHg 65%
18:00 +13°C° 0 mm 2 m/s 759 mmHg 69%
19:00 +12°C° 0 mm 2 m/s 759 mmHg 70%
20:00 +12°C° 0 mm 2 m/s 759 mmHg 71%
21:00 +10°C° 0 mm 2 m/s 760 mmHg 72%
22:00 +10°C° 0 mm 2 m/s 760 mmHg 73%
23:00 +9°C° 0 mm 2 m/s 760 mmHg 74%

21 Avril, Mercredi

Heure Température Précipitation Vent Pression Humidité
00:00 +10°C° 0 mm 1 m/s 760 mmHg 75%
01:00 +10°C° 0 mm 1 m/s 760 mmHg 75%
02:00 +10°C° 0 mm 1 m/s 760 mmHg 75%
03:00 +9°C° 0 mm 1 m/s 760 mmHg 76%
04:00 +9°C° 0 mm 1 m/s 760 mmHg 76%
05:00 +9°C° 0 mm 1 m/s 760 mmHg 77%
06:00 +10°C° 0 mm 1 m/s 760 mmHg 77%
07:00 +11°C° 0 mm 1 m/s 760 mmHg 73%
08:00 +12°C° 0 mm 2 m/s 761 mmHg 69%
09:00 +13°C° 0 mm 2 m/s 761 mmHg 64%
10:00 +13°C° 0.1 mm 2 m/s 761 mmHg 63%
11:00 +13°C° 0.1 mm 3 m/s 761 mmHg 63%
12:00 +13°C° 0.1 mm 4 m/s 761 mmHg 62%
13:00 +13°C° 0.1 mm 4 m/s 761 mmHg 61%
14:00 +13°C° 0.1 mm 4 m/s 761 mmHg 60%
15:00 +13°C° 0.1 mm 4 m/s 761 mmHg 60%
16:00 +12°C° 0 mm 4 m/s 761 mmHg 60%
17:00 +10°C° 0 mm 5 m/s 762 mmHg 61%
18:00 +9°C° 0 mm 5 m/s 762 mmHg 62%
19:00 +8°C° 0 mm 4 m/s 763 mmHg 65%
20:00 +6°C° 0 mm 4 m/s 763 mmHg 68%
21:00 +4°C° 0 mm 3 m/s 764 mmHg 71%
22:00 +3°C° 0 mm 3 m/s 764 mmHg 75%
23:00 +3°C° 0 mm 2 m/s 764 mmHg 79%

22 Avril, Jeudi

Heure Température Précipitation Vent Pression Humidité
00:00 +3°C° 0 mm 2 m/s 764 mmHg 83%
01:00 +2°C° 0 mm 2 m/s 765 mmHg 84%
02:00 +2°C° 0 mm 2 m/s 765 mmHg 86%
03:00 +1°C° 0 mm 2 m/s 765 mmHg 87%
04:00 +2°C° 0 mm 2 m/s 765 mmHg 83%
05:00 +4°C° 0 mm 1 m/s 765 mmHg 79%
06:00 +4°C° 0 mm 1 m/s 765 mmHg 76%
07:00 +5°C° 0 mm 2 m/s 766 mmHg 70%
08:00 +6°C° 0 mm 2 m/s 766 mmHg 64%
09:00 +8°C° 0 mm 3 m/s 766 mmHg 58%
10:00 +9°C° 0 mm 3 m/s 766 mmHg 54%
11:00 +10°C° 0 mm 3 m/s 765 mmHg 50%
12:00 +12°C° 0 mm 3 m/s 765 mmHg 46%
13:00 +12°C° 0 mm 3 m/s 765 mmHg 45%
14:00 +13°C° 0 mm 3 m/s 765 mmHg 44%
15:00 +13°C° 0 mm 3 m/s 765 mmHg 43%
16:00 +12°C° 0 mm 3 m/s 765 mmHg 49%
17:00 +11°C° 0 mm 3 m/s 765 mmHg 55%
18:00 +8°C° 0 mm 4 m/s 765 mmHg 60%
19:00 +8°C° 0 mm 3 m/s 765 mmHg 65%
20:00 +5°C° 0 mm 3 m/s 766 mmHg 70%
21:00 +3°C° 0 mm 3 m/s 766 mmHg 76%
22:00 +3°C° 0 mm 3 m/s 766 mmHg 80%
23:00 +2°C° 0 mm 3 m/s 766 mmHg 84%

23 Avril, Vendredi

Heure Température Précipitation Vent Pression Humidité
00:00 +3°C° 0 mm 2 m/s 767 mmHg 88%
01:00 +2°C° 0 mm 2 m/s 767 mmHg 89%
02:00 +2°C° 0 mm 2 m/s 767 mmHg 90%
03:00 +2°C° 0 mm 2 m/s 767 mmHg 91%
04:00 +1°C° 0 mm 3 m/s 767 mmHg 87%
05:00 +2°C° 0 mm 3 m/s 767 mmHg 82%
06:00 +2°C° 0 mm 3 m/s 767 mmHg 78%
07:00 +5°C° 0 mm 4 m/s 767 mmHg 70%
08:00 +7°C° 0 mm 4 m/s 767 mmHg 62%
09:00 +9°C° 0 mm 5 m/s 767 mmHg 54%
10:00 +10°C° 0 mm 5 m/s 767 mmHg 52%
11:00 +12°C° 0 mm 5 m/s 767 mmHg 49%
12:00 +14°C° 0 mm 5 m/s 766 mmHg 46%
13:00 +14°C° 0 mm 5 m/s 766 mmHg 46%
14:00 +14°C° 0 mm 6 m/s 766 mmHg 46%
15:00 +14°C° 0 mm 6 m/s 766 mmHg 46%
16:00 +13°C° 0 mm 5 m/s 766 mmHg 51%
17:00 +12°C° 0 mm 4 m/s 766 mmHg 56%
18:00 +11°C° 0 mm 4 m/s 765 mmHg 60%
19:00 +10°C° 0 mm 4 m/s 766 mmHg 62%
20:00 +8°C° 0 mm 4 m/s 766 mmHg 64%
21:00 +7°C° 0 mm 5 m/s 766 mmHg 66%
22:00 +7°C° 0 mm 5 m/s 766 mmHg 69%
23:00 +6°C° 0 mm 5 m/s 766 mmHg 71%
Voir plus

Nous avons besoin de votre consentement

Meteoprog et ses fournisseurs de services peuvent stocker et accéder à des données personnelles telles que des cookies, des identifiants d'appareils ou d'autres technologies similaires sur votre appareil et traiter ces données pour personnaliser le contenu et les publicités, ainsi que pour fournir des fonctionnalités de médias sociaux et analyser le trafic.

  • Stocker et/ou accéder à des informations sur votre appareil

    Des cookies, des identifiants d'appareils ou d'autres informations peuvent être stockés ou accessibles sur votre appareil aux fins indiquées ci-dessus.

  • Annonces et contenus personnalisés, mesure des annonces et des contenus, connaissance de l'audience et développement de produits

    Les annonces et le contenu peuvent être personnalisés en fonction d'un profil. D'autres données peuvent être ajoutées pour mieux personnaliser les annonces et le contenu. Les performances des publicités et du contenu peuvent être mesurées. Il est possible d'obtenir des informations sur le public qui a vu les publicités et le contenu. Ces données peuvent être utilisées pour développer ou améliorer l'expérience de l'utilisateur, les systèmes et les logiciels.

En cliquant sur "J'accepte", vous autorisez l'utilisation de cookies, des identifiants d'appareils, des balises web ou d'autres technologies similaires. Vos paramètres peuvent être modifiés dans le navigateur de votre appareil.

Dans certains cas, des intérêts légitimes peuvent être invoqués plutôt qu'un consentement. Vous pouvez en savoir plus à ce sujet dans notre Politique de confidentialité et de cookies.